Weather History for Dayton Wright, OH

Change the Weather History Date:

Sunday, April 7, 2013

  Actual Average (KFFO) Record (KFFO)
Temperature  
Mean Temperature 18 °C -  
Max Temperature 23 °C 15 °C 30 °C (2001)
Min Temperature 13 °C 2 °C -7 °C (2007)
Degree Days  
Heating Degree Days 2    
Growing Degree Days 14 (Base 50)    
Moisture  
Dew Point 5 °C    
Average Humidity 44    
Maximum Humidity 78    
Minimum Humidity 34    
Precipitation  
Precipitation 0.00 mm - - ()
Sea Level Pressure  
Sea Level Pressure 1013 hPa    
Wind  
Wind Speed 19 km/h (SW)    
Max Wind Speed 32 km/h    
Max Gust Speed 47 km/h    
Visibility 16 kilometers    
Events      
Averages and records for this station are not official NWS values.
T = Trace of Precipitation, MM = Missing Value Source: NWS Daily Summary

Daily Weather History Graph

Daily Weather History Graph

Search for Another Location

Airport:

Trip Planner

Search our weather history database for the weather conditions in past years. The results will help you decide how hot, cold, wet, or windy it might be!

Date:

Astronomy

Apr. 07, 2013 Rise Set
Actual Time 7:11 AM EDT 8:07 PM EDT
Civil Twilight 6:43 AM EDT 8:34 PM EDT
Nautical Twilight 6:11 AM EDT 9:07 PM EDT
Astronomical Twilight 5:37 AM EDT 9:41 PM EDT
Moon 5:27 AM EDT (4/7) 5:38 PM EDT (4/7)
Length of Visible Light 13h 50m
Length of Day
12h 55m
Waning Crescent, 8% of the Moon is Illuminated
Apr 7
Waning Crescent
Apr 10
New
Apr 18
First Quarter
Apr 25
Full
May 2
Last Quarter

Hourly Weather History & Observations

Time (EDT) Temp. Dew Point Humidity Pressure Visibility Wind Dir Wind Speed Gust Speed Precip Events Conditions
12:53 AM 13.3 °C 1.7 °C 45% 1011.9 hPa 16.1 km South 14.8 km/h / 4.1 m/s - N/A   Clear
1:53 AM 15.0 °C 1.1 °C 39% 1011.5 hPa 16.1 km SSW 18.5 km/h / 5.1 m/s - N/A   Clear
2:53 AM 15.6 °C 1.1 °C 38% 1011.0 hPa 16.1 km SSW 20.4 km/h / 5.7 m/s 35.2 km/h / 9.8 m/s N/A   Partly Cloudy
3:53 AM 15.6 °C 1.1 °C 38% 1010.3 hPa 16.1 km SSW 22.2 km/h / 6.2 m/s 35.2 km/h / 9.8 m/s N/A   Clear
4:53 AM 15.0 °C 1.7 °C 41% 1010.0 hPa 16.1 km SSW 25.9 km/h / 7.2 m/s 40.7 km/h / 11.3 m/s N/A   Clear
5:53 AM 15.0 °C 2.2 °C 42% 1010.3 hPa 16.1 km SSW 20.4 km/h / 5.7 m/s 42.6 km/h / 11.8 m/s N/A   Scattered Clouds
6:53 AM 14.4 °C 2.2 °C 44% 1010.9 hPa 16.1 km SSW 20.4 km/h / 5.7 m/s - N/A   Scattered Clouds
7:53 AM 14.4 °C 2.8 °C 46% 1011.8 hPa 16.1 km SW 16.7 km/h / 4.6 m/s - N/A   Partly Cloudy
8:53 AM 15.6 °C 3.3 °C 44% 1012.3 hPa 16.1 km SW 27.8 km/h / 7.7 m/s - N/A   Overcast
9:53 AM 16.1 °C 3.9 °C 44% 1012.6 hPa 16.1 km SW 27.8 km/h / 7.7 m/s 42.6 km/h / 11.8 m/s 0.0 mm   Mostly Cloudy
10:53 AM 17.8 °C 5.0 °C 43% 1012.7 hPa 16.1 km SW 31.5 km/h / 8.7 m/s 46.3 km/h / 12.9 m/s N/A   Clear
11:53 AM 18.9 °C 6.1 °C 43% 1013.0 hPa 16.1 km SW 24.1 km/h / 6.7 m/s 40.7 km/h / 11.3 m/s N/A   Clear
12:53 PM 20.0 °C 6.1 °C 40% 1013.0 hPa 16.1 km WSW 16.7 km/h / 4.6 m/s 33.3 km/h / 9.3 m/s N/A   Mostly Cloudy
1:53 PM 21.1 °C 6.1 °C 38% 1012.8 hPa 16.1 km West 27.8 km/h / 7.7 m/s 37.0 km/h / 10.3 m/s N/A   Scattered Clouds
2:53 PM 21.7 °C 5.6 °C 35% 1012.7 hPa 16.1 km WSW 24.1 km/h / 6.7 m/s 42.6 km/h / 11.8 m/s N/A   Scattered Clouds
3:53 PM 21.1 °C 5.0 °C 35% 1012.9 hPa 16.1 km WSW 22.2 km/h / 6.2 m/s 37.0 km/h / 10.3 m/s N/A   Overcast
4:53 PM 22.2 °C 5.6 °C 34% 1012.8 hPa 16.1 km WSW 14.8 km/h / 4.1 m/s 35.2 km/h / 9.8 m/s N/A   Scattered Clouds
5:53 PM 21.1 °C 5.6 °C 36% 1013.5 hPa 16.1 km WSW 16.7 km/h / 4.6 m/s - N/A   Mostly Cloudy
6:53 PM 21.1 °C 5.6 °C 36% 1013.6 hPa 16.1 km WSW 14.8 km/h / 4.1 m/s - N/A   Overcast
7:53 PM 20.0 °C 6.1 °C 40% 1013.6 hPa 16.1 km Calm Calm - N/A   Mostly Cloudy
8:53 PM 18.3 °C 6.1 °C 45% 1013.9 hPa 16.1 km Calm Calm - N/A   Overcast
9:53 PM 16.1 °C 9.4 °C 64% 1014.9 hPa 16.1 km SSW 7.4 km/h / 2.1 m/s - N/A   Partly Cloudy
10:53 PM 14.4 °C 10.6 °C 78% 1014.9 hPa 16.1 km South 11.1 km/h / 3.1 m/s - N/A   Scattered Clouds
11:53 PM 16.1 °C 10.6 °C 70% 1015.0 hPa 16.1 km SSW 7.4 km/h / 2.1 m/s - N/A   Mostly Cloudy